Seattle, WA

1:19 AM PST on January 19, 2017 (GMT -0800)
Renton Municipal

Weather History for KRNT - June, 2013

Change the Weather History Date:

Friday, June 28, 2013

  Actual Average Record
Temperature  
Mean Temperature 76 °F -  
Max Temperature 89 °F 70 °F 90 °F (2000)
Min Temperature 63 °F 54 °F 51 °F (1999)
Cooling Degree Days 10    
Growing Degree Days 26 (Base 50)    
Moisture  
Dew Point 61 °F    
Average Humidity 70    
Maximum Humidity 94    
Minimum Humidity 35    
Precipitation  
Precipitation 0.00 in - - ()
Sea Level Pressure  
Sea Level Pressure 30.13 in    
Wind  
Wind Speed 5 mph (NW)    
Max Wind Speed 10 mph    
Max Gust Speed -    
Visibility 10 miles    
Events      
Averages and records for this station are not official NWS values.
T = Trace of Precipitation, MM = Missing Value Source: NWS Daily Summary

Daily Weather History Graph

Daily Weather History Graph

Search for Another Location

Airport or City:

Trip Planner

Search our weather history database for the weather conditions in past years. The results will help you decide how hot, cold, wet, or windy it might be!

Date:

Astronomy

Jun. 28, 2013 Rise Set
Actual Time 5:14 AM PDT 9:10 PM PDT
Civil Twilight 4:33 AM PDT 9:50 PM PDT
Nautical Twilight 3:38 AM PDT 10:45 PM PDT
Astronomical Twilight 2:11 AM PDT 12:11 AM PDT
Moon No Moon Rise 11:55 AM PDT (6/28)
Length of Visible Light 17h 16m
Length of Day
15h 55m
Waning Gibbous, 65% of the Moon is Illuminated
Jun 28
Waning Gibbous
Jun 29
Last Quarter
Jul 8
New
Jul 15
First Quarter
Jul 22
Full

Hourly Weather History & Observations

Time (PDT) Temp. Heat Index Dew Point Humidity Pressure Visibility Wind Dir Wind Speed Gust Speed Precip Events Conditions
12:53 AM 64.9 °F - 63.0 °F 93% 30.20 in 10.0 mi NW 4.6 mph - N/A   Clear
1:53 AM 64.9 °F - 63.0 °F 93% 30.20 in 10.0 mi North 4.6 mph - N/A   Overcast
2:25 AM 64.4 °F - 62.6 °F 94% 30.19 in 10.0 mi NW 3.5 mph - N/A   Overcast
2:53 AM 64.9 °F - 63.0 °F 93% 30.19 in 10.0 mi NW 4.6 mph - N/A   Scattered Clouds
3:53 AM 64.9 °F - 63.0 °F 93% 30.17 in 10.0 mi WNW 6.9 mph - N/A   Clear
4:13 AM 64.4 °F - 62.6 °F 94% 30.15 in 10.0 mi NW 6.9 mph - N/A   Scattered Clouds
4:53 AM 64.0 °F - 62.1 °F 93% 30.17 in 10.0 mi NW 5.8 mph - N/A   Clear
5:09 AM 64.4 °F - 62.6 °F 94% 30.15 in 10.0 mi WNW 6.9 mph - N/A   Scattered Clouds
5:21 AM 64.4 °F - 62.6 °F 94% 30.16 in 10.0 mi WNW 4.6 mph - N/A   Mostly Cloudy
5:53 AM 63.0 °F - 57.0 °F 81% 30.17 in 10.0 mi WNW 5.8 mph - N/A   Mostly Cloudy
6:53 AM 64.0 °F - 59.0 °F 84% 30.17 in 10.0 mi WNW 6.9 mph - N/A   Mostly Cloudy
7:53 AM 64.9 °F - 59.0 °F 81% 30.16 in 10.0 mi NNW 5.8 mph - N/A   Scattered Clouds
7:57 AM 64.4 °F - 59.0 °F 83% 30.15 in 10.0 mi NNW 5.8 mph - N/A   Scattered Clouds
8:53 AM 66.9 °F - 61.0 °F 81% 30.15 in 10.0 mi NNW 4.6 mph - N/A   Clear
9:53 AM 69.1 °F - 60.1 °F 73% 30.13 in 10.0 mi North 6.9 mph - N/A   Partly Cloudy
10:53 AM 72.0 °F - 61.0 °F 68% 30.12 in 10.0 mi NNW 6.9 mph - N/A   Mostly Cloudy
11:53 AM 75.9 °F - 61.0 °F 60% 30.11 in 10.0 mi NNW 5.8 mph - N/A   Clear
12:53 PM 80.1 °F 81.1 °F 61.0 °F 52% 30.10 in 10.0 mi NNW 4.6 mph - N/A   Clear
1:53 PM 82.0 °F 82.7 °F 61.0 °F 49% 30.09 in 10.0 mi NNW 5.8 mph - N/A   Clear
2:53 PM 84.9 °F 84.8 °F 60.1 °F 43% 30.08 in 10.0 mi NNW 8.1 mph - N/A   Clear
3:53 PM 88.0 °F 86.7 °F 57.0 °F 35% 30.07 in 10.0 mi West 10.4 mph - N/A   Clear
4:53 PM 87.1 °F 86.7 °F 60.1 °F 40% 30.07 in 8.0 mi South 6.9 mph - N/A   Clear
5:53 PM 86.0 °F 85.4 °F 59.0 °F 40% 30.06 in 10.0 mi Variable 4.6 mph - N/A   Clear
6:53 PM 87.1 °F 86.7 °F 60.1 °F 40% 30.05 in 10.0 mi South 5.8 mph - N/A   Clear
7:53 PM 86.0 °F 86.3 °F 62.1 °F 44% 30.06 in 10.0 mi SW 3.5 mph - N/A   Partly Cloudy
8:53 PM 77.0 °F - 61.0 °F 58% 30.06 in 10.0 mi NNW 4.6 mph - N/A   Mostly Cloudy
9:53 PM 73.9 °F - 59.0 °F 59% 30.09 in 10.0 mi WNW 6.9 mph - N/A   Overcast
10:53 PM 73.0 °F - 57.9 °F 59% 30.09 in 10.0 mi NW 4.6 mph - N/A   Mostly Cloudy
11:53 PM 72.0 °F - 59.0 °F 64% 30.09 in 10.0 mi Calm Calm - N/A   Clear